sat.trackr.live / text

‹ back to catalog

STARLINK-35348

NORAD 65904 · 2025-224Y

PAYLOAD ACTIVE UNKNOWN

§ Identity

Operator
Country
US
Launch date
2025-10-07
Launch site
AFETR
Launch vehicle
Mass (kg)
RCS (m²)

Purposes: comms

External: N2YO · Heavens-Above · Gunter

§ Orbital elements

Epoch: 2026-05-24T22:29:01.629024Z

Period
93.85 min
Inclination
53.1582°
Eccentricity
0.0000954
Mean motion
15.34396011 rev/d
Perigee alt
462.1 km
Apogee alt
463.4 km
Semi-major
6,840.9 km
B*
6.5135e-4
RAAN
16.0791°
Arg perigee
91.0035°
Mean anomaly
269.1077°
Rev number
3,651

§ Raw data

STARLINK-353481 65904U 25224Y   26144.93682441  .00021692  00000+0  65135-3 0  99952 65904  53.1582  16.0791 0000954  91.0035 269.1077 15.34396011 36510

JSON: /api/v1/satellites/65904 · /tle

For live sub-satellite position, see the globe view (requires WebGL).

§ Visibility from observer

Set your observer location to see the next 7 days of passes ≥ 10°. The values pass through the URL so the page stays shareable.

No JS? Fill the form by hand. The geolocation button needs JavaScript.